User: anonymous   Login
Location: Unspecified
(0.0000°N, 0.0000°E)
Time: 09:20:13
(UTC+00:00)
Language:

Orbcomm A7 (FM11) - Orbit

View from above orbital plane
View from above orbital plane
View from above satellite
View from above satellite

Ground track
Ground track

The orbit data is extracted from the following two-line orbital elements,

1 25114U 97084C   17086.60598485 +.00000236 +00000-0 +12285-3 0  9990
2 25114 045.0158 254.8207 0006569 223.3907 136.6425 14.38516453008531
Epoch (UTC): 27 March 2017 14:32:37
Eccentricity: 0.0006569
inclination: 45.0158°
perigee height: 759 km
apogee height: 768 km
right ascension of ascending node: 254.8207°
argument of perigee: 223.3907°
revolutions per day: 14.38516453
mean anomaly at epoch: 136.6425°
orbit number at epoch: 853

The dashed part of the orbit path shows where the satellite is in the earth's shadow,  

DLR